August 17, 2022

Time Code Weather Temp. Visibility Ceiling Wind METAR/SPECI
05:25
V
20 °C 10 km+ 24,000 ft 040° 040° 4 kt METAR EHVK 170325Z AUTO 04004KT 9999 OVC240 20/16 Q1008 BLU
04:55
V
20 °C 10 km+ 27,000 ft 040° 040° 4 kt METAR EHVK 170255Z AUTO 04004KT 9999 BKN270 OVC320 20/17 Q1008 BLU
04:25
V
20 °C 9 km 14,000 ft 050° 050° 3 kt METAR EHVK 170225Z AUTO 05003KT 9000 HZ OVC140 20/17 Q1009 BLU
03:55
V
20 °C 8 km 15,000 ft 060° 060° 4 kt METAR EHVK 170155Z AUTO 06004KT 8000 HZ OVC150 20/17 Q1009 BLU
03:25
V
20 °C 9 km 15,000 ft 080° 080° 4 kt METAR EHVK 170125Z AUTO 08004KT 9000 HZ OVC150 20/17 Q1009 BLU
02:55
V
20 °C 9 km 12,000 ft 060° 060° 4 kt METAR EHVK 170055Z AUTO 06004KT 9000 HZ OVC120 20/17 Q1009 BLU
02:25
V
20 °C 9 km 10,000 ft 060° 060° 4 kt METAR EHVK 170025Z AUTO 06004KT 9000 HZ OVC100 20/17 Q1009 BLU
01:55
V
20 °C 10 km+ 11,000 ft 060° 060° 4 kt METAR EHVK 162355Z AUTO 06004KT 9999 OVC110 20/17 Q1010 BLU
01:25
V
20 °C 10 km+ 11,000 ft 050° 050° 4 kt METAR EHVK 162325Z AUTO 05004KT 9999 OVC110 20/17 Q1010 BLU
00:55
V
21 °C 10 km+ 25,000 ft 040° 040° 3 kt METAR EHVK 162255Z AUTO 04003KT 9999 OVC250 21/17 Q1010 BLU
00:25
V
21 °C 10 km+ 28,000 ft 020° 020° 3 kt METAR EHVK 162225Z AUTO 02003KT 360V060 9999 OVC280 21/17 Q1010 BLU

August 16, 2022

Time Code Weather Temp. Visibility Ceiling Wind METAR/SPECI
23:55
V
21 °C 10 km+ 7,600 ft 020° 020° 3 kt METAR EHVK 162155Z AUTO 02003KT 9999 BKN076 BKN084 OVC210 21/16 Q1010 BLU
23:25
V
22 °C 10 km+ 15,000 ft 360° 360° 4 kt METAR EHVK 162125Z AUTO 36004KT 9999 OVC150 22/16 Q1010 BLU
22:55
V
22 °C 10 km+ 15,000 ft 360° 360° 4 kt METAR EHVK 162055Z AUTO 36004KT 9999 TS OVC150 22/15 Q1010 BLU
22:25
V
22 °C 10 km+ 30,000 ft 010° 010° 1 kt METAR EHVK 162025Z AUTO 01001KT 9999 OVC300 22/15 Q1010 BLU
21:55
V
22 °C 10 km+ 17,000 ft 350° 350° 2 kt METAR EHVK 161955Z AUTO 35002KT 9999 BKN170 OVC300 22/16 Q1009 BLU
21:25
V
24 °C 10 km+ 17,000 ft 010° 010° 3 kt METAR EHVK 161925Z AUTO 01003KT 320V030 9999 OVC170 24/15 Q1009 BLU
20:55
V
24 °C 10 km+ 17,000 ft 360° 360° 3 kt METAR EHVK 161855Z AUTO 36003KT 9999 OVC170 24/15 Q1009 BLU
20:25
V
25 °C 10 km+ 22,000 ft 360° 360° 3 kt METAR EHVK 161825Z AUTO 36003KT 9999 BKN220 OVC290 25/15 Q1009 BLU
19:55
V
26 °C 10 km+ 18,000 ft 350° 350° 5 kt METAR EHVK 161755Z AUTO 35005KT 310V010 9999 OVC180 26/14 Q1008 BLU
19:25
V
27 °C 10 km+ 19,000 ft 360° 360° 5 kt METAR EHVK 161725Z AUTO 36005KT 9999 OVC190 27/12 Q1008 BLU
18:55
V
28 °C 10 km+ 24,000 ft 350° 350° 7 kt METAR EHVK 161655Z AUTO 35007KT 310V020 9999 OVC240 28/11 Q1008 BLU
18:25
V
28 °C 10 km+ 14,000 ft 290° 290° 4 kt METAR EHVK 161625Z AUTO 29004KT 220V360 9999 OVC140 28/13 Q1008 BLU
17:55
V
29 °C 10 km+ 16,000 ft 250° 250° 6 kt METAR EHVK 161555Z AUTO 25006KT 170V250 9999 OVC160 29/11 Q1008 BLU
17:25
V
30 °C 10 km+ 16,000 ft 260° 260° 4 kt METAR EHVK 161525Z AUTO 26004KT 240V340 9999 OVC160 30/13 Q1008 BLU
16:55
V
30 °C 10 km+ 15,000 ft Var Var 5 kt METAR EHVK 161455Z AUTO VRB05KT 9999 OVC150 30/11 Q1008 BLU
16:25
V
29 °C 10 km+ 15,000 ft 290° 290° 4 kt METAR EHVK 161425Z AUTO 29004KT 210V350 9999 OVC150 29/12 Q1008 BLU NOSIG
15:55
V
29 °C 10 km+ 16,000 ft Var Var 6 kt METAR EHVK 161355Z AUTO VRB06KT 9999 OVC160 29/11 Q1008 BLU NOSIG
15:25
V
29 °C 10 km+ 16,000 ft 240° 240° 8 kt METAR EHVK 161325Z AUTO 24008KT 190V310 9999 OVC160 29/11 Q1008 BLU NOSIG
14:55
V
29 °C 10 km+ 13,000 ft 250° 250° 8 kt METAR EHVK 161255Z AUTO 25008KT 140V280 9999 OVC130 29/11 Q1008 BLU NOSIG
14:25
V
28 °C 10 km+ 13,000 ft 240° 240° 10 kt METAR EHVK 161225Z AUTO 24010KT 200V280 9999 OVC130 28/12 Q1008 BLU NOSIG
13:55
V
28 °C 10 km+ 15,000 ft 240° 240° 10 kt METAR EHVK 161155Z AUTO 24010KT 180V280 9999 OVC150 28/12 Q1008 BLU NOSIG
13:25
V
28 °C 10 km+ 15,000 ft 250° 250° 8 kt METAR EHVK 161125Z AUTO 25008KT 180V300 9999 BKN150 OVC210 28/13 Q1008 BLU NOSIG
12:55
V
28 °C 10 km+ 25,000 ft 230° 230° 10 kt METAR EHVK 161055Z AUTO 23010KT 180V290 9999 BKN250 BKN300 28/13 Q1008 BLU NOSIG
12:25
V
27 °C 10 km+ - 220° 220° 9 kt METAR EHVK 161025Z AUTO 22009KT 170V280 9999 FEW300 27/14 Q1008 BLU NOSIG
11:55
V
26 °C 10 km+ 25,000 ft 210° 210° 10 kt METAR EHVK 160955Z AUTO 21010KT 170V260 9999 BKN250 OVC310 26/14 Q1008 BLU NOSIG
11:25
V
26 °C 10 km+ 26,000 ft 220° 220° 11 kt METAR EHVK 160925Z AUTO 22011KT 160V260 9999 OVC260 26/15 Q1008 BLU NOSIG
10:55
V
25 °C 10 km+ 27,000 ft 220° 220° 10 kt METAR EHVK 160855Z AUTO 22010KT 170V250 9999 BKN270 25/15 Q1007 BLU NOSIG
10:25
V
24 °C 10 km+ 26,000 ft 220° 220° 10 kt METAR EHVK 160825Z AUTO 22010KT 200V260 9999 OVC260 24/14 Q1007 BLU NOSIG
09:55
V
23 °C 10 km+ 35,000 ft 230° 230° 9 kt METAR EHVK 160755Z AUTO 23009KT 190V270 9999 BKN350 23/15 Q1007 BLU NOSIG
09:25
V
22 °C 10 km+ 29,000 ft 220° 220° 9 kt METAR EHVK 160725Z AUTO 22009KT 190V260 9999 BKN290 BKN350 22/16 Q1007 BLU NOSIG
08:55
V
21 °C 10 km+ - 220° 220° 8 kt METAR EHVK 160655Z AUTO 22008KT 180V260 9999 NCD 21/16 Q1007 BLU NOSIG
08:25
V
19 °C 10 km+ - 210° 210° 5 kt METAR EHVK 160625Z AUTO 21005KT 170V250 9999 NCD 19/16 Q1007 BLU NOSIG
07:56
V
19 °C 10 km+ - Var Var 2 kt METAR EHVK 160556Z AUTO VRB02KT 9999 NCD 19/16 Q1006 BLU NOSIG
07:55
V
18 °C 10 km+ - Var Var 2 kt METAR EHVK 160555Z AUTO VRB02KT 9999 NCD 18/16 Q1006 BLU
07:25
V
17 °C 10 km+ - Var Var 3 kt METAR EHVK 160525Z AUTO VRB03KT 9999 NCD 17/15 Q1006 BLU
06:55
V
16 °C 10 km+ 34,000 ft 220° 220° 3 kt METAR EHVK 160455Z AUTO 22003KT 130V200 9999 BKN340 16/15 Q1006 BLU
06:25
V
16 °C 10 km+ - 210° 210° 4 kt METAR EHVK 160425Z AUTO 21004KT 170V230 9999 NCD 16/15 Q1006 BLU
05:55
V
16 °C 10 km+ - 190° 190° 4 kt METAR EHVK 160355Z AUTO 19004KT 9999 SCT300 16/15 Q1006 BLU
05:25
V
16 °C 10 km+ - 210° 210° 4 kt METAR EHVK 160325Z AUTO 21004KT 160V220 9999 NCD 16/15 Q1006 BLU
04:55
V
17 °C 10 km+ - 200° 200° 5 kt METAR EHVK 160255Z AUTO 20005KT 160V230 9999 FEW330 17/16 Q1006 BLU
04:25
V
17 °C 10 km+ - 200° 200° 3 kt METAR EHVK 160225Z AUTO 20003KT 170V240 9999 NCD 17/15 Q1006 BLU
03:55
V
17 °C 10 km+ - Var Var 2 kt METAR EHVK 160155Z AUTO VRB02KT 9999 NCD 17/15 Q1006 BLU
03:25
V
18 °C 10 km+ - 190° 190° 2 kt METAR EHVK 160125Z AUTO 19002KT 9999 NCD 18/16 Q1006 BLU
02:55
V
19 °C 10 km+ - Var Var 1 kt METAR EHVK 160055Z AUTO VRB01KT 9999 FEW120 19/16 Q1006 BLU
02:25
V
19 °C 10 km+ 12,000 ft 220° 220° 1 kt METAR EHVK 160025Z AUTO 22001KT 9999 OVC120 19/15 Q1006 BLU
01:55
V
19 °C 10 km+ 13,000 ft Var Var 1 kt METAR EHVK 152355Z AUTO VRB01KT 9999 OVC130 19/16 Q1006 BLU
01:25
V
20 °C 10 km+ 12,000 ft Var Var 2 kt METAR EHVK 152325Z AUTO VRB02KT 9999 OVC120 20/16 Q1006 BLU
00:55
V
21 °C 10 km+ 11,000 ft Var Var 1 kt METAR EHVK 152255Z AUTO VRB01KT 9999 OVC110 21/16 Q1006 BLU
00:25
V
21 °C 10 km+ 11,000 ft Var Var 1 kt METAR EHVK 152225Z AUTO VRB01KT 9999 OVC110 21/16 Q1006 BLU

August 15, 2022

Time Code Weather Temp. Visibility Ceiling Wind METAR/SPECI
23:55
V
21 °C 10 km+ 10,000 ft Var Var 2 kt METAR EHVK 152155Z AUTO VRB02KT 9999 OVC100 21/16 Q1006 BLU
23:25
V
22 °C 10 km+ 10,000 ft Var Var 2 kt METAR EHVK 152125Z AUTO VRB02KT 9999 OVC100 22/16 Q1006 BLU
22:55
V
22 °C 10 km+ 10,000 ft 200° 200° 4 kt METAR EHVK 152055Z AUTO 20004KT 170V230 9999 OVC100 22/16 Q1005 BLU
22:25
V
22 °C 10 km+ 10,000 ft 190° 190° 3 kt METAR EHVK 152025Z AUTO 19003KT 160V230 9999 OVC100 22/16 Q1005 BLU
21:55
V
22 °C 10 km+ 10,000 ft 170° 170° 3 kt METAR EHVK 151955Z AUTO 17003KT 130V210 9999 SCT060 OVC100 22/15 Q1005 BLU
21:25
V
22 °C 10 km+ 10,000 ft 170° 170° 3 kt METAR EHVK 151925Z AUTO 17003KT 150V210 9999 OVC100 22/15 Q1005 BLU
20:55
V
23 °C 10 km+ 10,000 ft 170° 170° 2 kt METAR EHVK 151855Z AUTO 17002KT 9999 BKN100 BKN180 23/15 Q1004 BLU
20:25
V
24 °C 10 km+ 21,000 ft 170° 170° 4 kt METAR EHVK 151825Z AUTO 17004KT 160V230 9999 SCT120 BKN210 24/15 Q1004 BLU
19:55
V
25 °C 10 km+ 10,000 ft 190° 190° 5 kt METAR EHVK 151755Z AUTO 19005KT 170V240 9999 FEW094 BKN100 BKN210 25/15 Q1004 BLU
19:25
V
25 °C 10 km+ 12,000 ft 190° 190° 4 kt METAR EHVK 151725Z AUTO 19004KT 160V250 9999 BKN120 BKN220 25/16 Q1004 BLU
18:55
V
25 °C 10 km+ 9,700 ft 200° 200° 4 kt METAR EHVK 151655Z AUTO 20004KT 140V230 9999 BKN097 OVC120 25/16 Q1004 BLU
18:25
V
26 °C 10 km+ 9,400 ft 180° 180° 7 kt METAR EHVK 151625Z AUTO 18007KT 140V230 9999 OVC094 26/16 Q1004 BLU
17:55
V
26 °C 10 km+ 10,000 ft 210° 210° 5 kt METAR EHVK 151555Z AUTO 21005KT 140V240 9999 OVC100 26/16 Q1004 BLU
17:25
V
25 °C 10 km+ 11,000 ft 230° 230° 6 kt METAR EHVK 151525Z AUTO 23006KT 190V250 9999 OVC110 25/16 Q1004 BLU
16:55
V
26 °C 10 km+ 8,900 ft 220° 220° 8 kt METAR EHVK 151455Z AUTO 22008KT 190V270 9999 FEW078 BKN089 BKN095 26/16 Q1004 BLU
16:25
V
25 °C 10 km+ 9,100 ft 200° 200° 7 kt METAR EHVK 151425Z AUTO 20007KT 180V270 9999 OVC091 25/16 Q1004 BLU
16:09
V
26 °C 10 km+ 10,000 ft 240° 240° 7 kt METAR EHVK 151409Z AUTO 24007KT 150V250 9999 FEW091 OVC100 26/16 Q1004 BLU
15:55
V
26 °C 10 km+ 10,000 ft 220° 220° 8 kt METAR EHVK 151355Z AUTO 22008KT 160V270 9999 FEW061 SCT089 OVC100 26/16 Q1004 BLU TEMPO SCT060CB BKN070
15:25
V
27 °C 10 km+ 11,000 ft 220° 220° 8 kt METAR EHVK 151325Z AUTO 22008KT 150V280 9999 FEW086 BKN110 OVC180 27/16 Q1004 BLU TEMPO SCT060CB BKN070
14:55
V
25 °C 10 km+ 8,600 ft 200° 200° 7 kt METAR EHVK 151255Z AUTO 20007KT 180V260 9999 OVC086 25/16 Q1004 BLU TEMPO SCT060CB BKN070
14:25
V
25 °C 10 km+ 10,000 ft 230° 230° 8 kt METAR EHVK 151225Z AUTO 23008KT 160V260 9999 FEW086 SCT092 OVC100 25/16 Q1004 BLU TEMPO SCT060CB BKN070
13:55
V
24 °C 10 km+ 9,000 ft 210° 210° 7 kt METAR EHVK 151155Z AUTO 21007KT 190V270 9999 OVC090 24/17 Q1004 BLU TEMPO SCT060CB BKN070
13:25
V
24 °C 10 km+ 10,000 ft 210° 210° 8 kt METAR EHVK 151125Z AUTO 21008KT 170V240 9999 FEW068/// SCT096/// OVC100/// 24/17 Q1004 BLU TEMPO SCT060CB BKN070
12:55
V
24 °C 10 km+ 10,000 ft 220° 220° 8 kt METAR EHVK 151055Z AUTO 22008KT 160V260 9999 -DZ FEW093 OVC100 24/17 Q1004 BLU TEMPO SCT060CB BKN070
12:25
V
23 °C 10 km+ 10,000 ft 220° 220° 11 kt METAR EHVK 151025Z AUTO 22011KT 200V270 9999 OVC100 23/16 Q1004 BLU TEMPO SCT060CB BKN070
11:55
V
23 °C 10 km+ 9,900 ft 240° 240° 6 kt METAR EHVK 150955Z AUTO 24006KT 190V280 9999 FEW026 SCT054 BKN099 23/17 Q1004 REDZ BLU TEMPO SCT060CB BKN070
11:25
V
24 °C 10 km+ 8,600 ft 240° 240° 8 kt METAR EHVK 150925Z AUTO 24008KT 200V260 9999 FEW048 SCT081 BKN086 24/16 Q1004 BLU TEMPO SCT060CB BKN070
10:55
V
24 °C 10 km+ 10,000 ft 230° 230° 10 kt METAR EHVK 150855Z AUTO 23010KT 180V250 9999 BKN100 OVC150 24/16 Q1004 BLU TEMPO SCT060CB BKN070
10:25
V
24 °C 10 km+ 12,000 ft 230° 230° 12 kt METAR EHVK 150825Z AUTO 23012KT 180V270 9999 OVC120 24/16 Q1004 BLU TEMPO SCT060CB BKN070
09:55
V
23 °C 10 km+ 11,000 ft 230° 230° 9 kt METAR EHVK 150755Z AUTO 23009KT 190V260 9999 OVC110 23/15 Q1003 BLU TEMPO SCT060CB BKN070
09:25
V
23 °C 10 km+ 11,000 ft 230° 230° 10 kt METAR EHVK 150725Z AUTO 23010KT 190V280 9999 OVC110 23/15 Q1003 BLU TEMPO SCT060CB BKN070
08:55
V
22 °C 10 km+ 14,000 ft 230° 230° 9 kt METAR EHVK 150655Z AUTO 23009KT 190V250 9999 OVC140 22/14 Q1003 BLU TEMPO SCT060CB BKN070
08:25
V
22 °C 10 km+ 14,000 ft 220° 220° 9 kt METAR EHVK 150625Z AUTO 22009KT 190V260 9999 OVC140 22/14 Q1003 BLU TEMPO SCT060CB BKN070
07:55
V
22 °C 10 km+ 10,000 ft 230° 230° 8 kt METAR EHVK 150555Z AUTO 23008KT 210V270 9999 OVC100 22/13 Q1003 BLU TEMPO SCT060CB BKN070
07:25
V
20 °C 10 km+ 12,000 ft 230° 230° 7 kt METAR EHVK 150525Z AUTO 23007KT 9999 OVC120 20/12 Q1003 BLU
06:55
V
20 °C 10 km+ 15,000 ft 240° 240° 7 kt METAR EHVK 150455Z AUTO 24007KT 9999 BKN150 OVC220 20/12 Q1003 BLU
06:25
V
20 °C 10 km+ 35,000 ft 220° 220° 7 kt METAR EHVK 150425Z AUTO 22007KT 180V270 9999 OVC350 20/12 Q1003 BLU
05:55
V
20 °C 10 km+ 34,000 ft 240° 240° 7 kt METAR EHVK 150355Z AUTO 24007KT 9999 FEW097 OVC340 20/12 Q1003 BLU
05:25
V
20 °C 10 km+ 18,000 ft 230° 230° 7 kt METAR EHVK 150325Z AUTO 23007KT 9999 SCT100 OVC180 20/14 Q1002 BLU
04:55
V
19 °C 10 km+ 19,000 ft 230° 230° 7 kt METAR EHVK 150255Z AUTO 23007KT 9999 FEW100 OVC190 19/15 Q1003 BLU
04:25
V
20 °C 10 km+ 13,000 ft 200° 200° 5 kt METAR EHVK 150225Z AUTO 20005KT 9999 SCT097 BKN130 OVC200 20/16 Q1002 BLU
03:58
V
20 °C 10 km+ 10,000 ft Var Var 1 kt METAR EHVK 150158Z AUTO VRB01KT 9999 BKN100/// OVC190/// 20/16 Q1002 BLU
03:55
V
20 °C 10 km+ 11,000 ft 280° 280° 1 kt METAR EHVK 150155Z AUTO 28001KT 9999 SCT096 BKN110 OVC190 20/15 Q1002 BLU
03:25
V
21 °C 10 km+ 11,000 ft Var Var 2 kt METAR EHVK 150125Z AUTO VRB02KT 9999 BKN110 OVC200 21/16 Q1003 BLU
02:55
V
21 °C 10 km+ 10,000 ft Var Var 2 kt METAR EHVK 150055Z AUTO VRB02KT 9999 OVC100 21/15 Q1003 BLU
02:25
V
22 °C 10 km+ 19,000 ft 230° 230° 4 kt METAR EHVK 150025Z AUTO 23004KT 9999 OVC190 22/15 Q1003 BLU
01:55
V
23 °C 10 km+ 20,000 ft 020° 020° 3 kt METAR EHVK 142355Z AUTO 02003KT 9999 SCT120 OVC200 23/15 Q1003 BLU
01:25
V
23 °C 10 km+ 11,000 ft 040° 040° 2 kt METAR EHVK 142325Z AUTO 04002KT 9999 OVC110 23/15 Q1003 BLU
00:55
V
24 °C 10 km+ 20,000 ft 020° 020° 3 kt METAR EHVK 142255Z AUTO 02003KT 9999 OVC200 24/15 Q1003 BLU
00:25
V
24 °C 10 km+ 20,000 ft 030° 030° 3 kt METAR EHVK 142225Z AUTO 03003KT 9999 FEW092 OVC200 24/15 Q1003 BLU

August 14, 2022

Time Code Weather Temp. Visibility Ceiling Wind METAR/SPECI
23:55
V
24 °C 10 km+ 20,000 ft 020° 020° 2 kt METAR EHVK 142155Z AUTO 02002KT 9999 OVC200 24/15 Q1004 BLU
Older data

We and third parties follow your internet behavior on our website with cookies. If you continue, we assume you agree with our cookie policy. Learn more